FLOCK 3P-28

Last updated on Wed Feb 14 2018 16:20:19 GMT+0000 (Coordinated Universal Time)

1 41960U 17008N 18044.73333361 .00001980 00000-0 84888-4 0 9990 2 41960 97.4656 110.2042 0010072 70.0970 290.1351 15.23902212 55224
UTC large
Height (km)
Speed (km/s)
/
Latitude / Longitude
Inclination (degrees)
Orbital Period (minutes)
Azimuth
Elevation
Range (km)
Doppler Factor

Next 0 passes for location: London (51.5072 / 0.1276)

Sorry there are no passes over London.
FLOCK 3P-28